Regional Weather Roundup
Issued by NWS

Home | Current Version | Previous Version | Graphics & Text | Print | Product List | Glossary Off
Versions: 1 2 3 4 5 6 7 8 9 10 11 12 13 14 15 16 17 18 19 20 21 22 23 24 25 26 27 28 29 30 31 32 33 34 35 36 37 38 39 40 41 42 43 44 45 46 47 48 49 50

000
ASUS43 KTOP 301559
RWRKS

WEATHER ROUNDUP FOR KANSAS
NATIONAL WEATHER SERVICE GOODLAND KS
1100 AM CDT THU JUL 30 2015

NOTE:  "FAIR" INDICATES FEW OR NO CLOUDS BELOW 12,000 FEET WITH NO
SIGNIFICANT WEATHER AND/OR OBSTRUCTIONS TO VISIBILITY.

KSZ001>006-013>018-027>032-041>047-301700-
NORTHWEST KANSAS

CITY           SKY/WX    TMP DP  RH WIND       PRES   REMARKS
GOODLAND       SUNNY     77  65  66 S8        30.30S
HAYS           MOSUNNY   75  63  64 S5        30.26F
HILL CITY      PTSUNNY   79  66  64 SE7       30.26F
RUSSELL        SUNNY     79  68  69 VRB6      30.25S
$$

KSZ061>065-074>080-084>089-301700-
SOUTHWEST KANSAS

CITY           SKY/WX    TMP DP  RH WIND       PRES   REMARKS
DODGE CITY     CLOUDY    73  65  75 E9        30.29R
ELKHART          N/A     73  65  76 E6          N/A
GARDEN CITY    CLOUDY    73  67  81 CALM      30.30R
GREAT BEND     CLOUDY    73  66  78 E7        30.25F
LIBERAL        CLOUDY    72  66  83 NE7       30.28F
$$

KSZ066>073-081>083-090>101-301700-
SOUTHEAST KANSAS

CITY           SKY/WX    TMP DP  RH WIND       PRES   REMARKS
CHANUTE        CLOUDY    82  66  58 E8        30.22R
COFFEYVILLE    PTSUNNY   84  67  56 E10       30.18S
HUTCHINSON     CLOUDY    72  68  87 E8        30.25F
MEDICINE LODGE   N/A     72  70  93 E10       30.24F
PARSONS        CLOUDY    82  66  58 VRB5      30.21S
WICHITA INTL   TSTM      71  68  90 SE8       30.25F
WICHITA JABRA  RAIN      69  32  25 SE8       30.26S
WICHITA MCCONL LGT RAIN  70  68  94 S3        30.27S FOG
WINFIELD       TSTM      69  68  96 N12       30.27S FOG
$$

KSZ007>012-019>026-033>040-048>060-102>105-301700-
NORTHEAST KANSAS

CITY           SKY/WX    TMP DP  RH WIND       PRES   REMARKS
CONCORDIA      SUNNY     80  63  55 S9        30.25S
EMPORIA        CLOUDY    72  68  87 W3        30.25S
LAWRENCE       PTSUNNY   81  67  62 CALM      30.23R
MANHATTAN      PTSUNNY   78  67  68 S3        30.24S
OLATHE IND     CLOUDY    82  58  43 CALM      30.24R
OLATHE EXE     PTSUNNY   80  58  46 SW6       30.23R
SALINA         MOSUNNY   79  67  66 SE12      30.25S
TOPEKA BILLARD PTSUNNY   79  67  66 CALM      30.23S
TOPEKA FORBES  PTSUNNY   79  64  60 SW3       30.24R
$$


USA.gov is the U.S. government's official web portal to all federal, state and local government web resources and services.